Home > Weather > Kassel > Past weeks

Flag for Germany Weather for the Past 2 Weeks in Kassel, Hesse, Germany

Now
39 °F

Mostly cloudy.


Feels Like: 39 °F
Forecast: 31 / 36 °F
Wind: 1 mph from North

Location: Kassel / Calden

Current Time: Feb 14, 2016 at 2:19:58 PM

Latest Report: Feb 14, 2016 at 1:50 PM


Visibility: N/A

Pressure: 29.18 "Hg

Humidity: 93%

Dew point: 37 °F

Location of KasselLocation

Historic Weather in Kassel — Graph

°F

Kassel Temperature Yesterday

Maximum temperature yesterday: 41 °F (at 12:50 PM)
Minimum temperature yesterday: 28 °F (at 7:20 AM)
Average temperature yesterday: 36 °F

High & Low Weather Summary for the Past Weeks

 TemperatureHumidityPressure
High52 °F (Feb 1, 9:20 AM)100% (Feb 1, 7:20 AM)30.27 "Hg (Feb 1, 7:20 AM)
Low28 °F (Feb 13, 7:20 AM)57% (Feb 3, 3:20 PM)28.88 "Hg (Feb 9, 5:50 PM)
Average41 °F82%29.67 "Hg
* Reported Jan 30 12:20 PM — Feb 14 12:50 PM, Kassel, Weather by CustomWeather, © 2016

Note: Actual official high and low records may vary slightly from our data, if they occured in-between our weather recording intervals... More about our weather records

Advertising

Kassel Weather History for the Previous 24 Hours

 ConditionsComfort  
Time TempWeatherWind HumidityBarometerVisibility
12:50 PM
Sun, Feb 14
39 °FBroken clouds.2 mph93%29.15 "Hg5 mi
12:20 PM39 °FBroken clouds.2 mph93%29.12 "Hg4 mi
11:50 AM39 °FFog.2 mph93%29.12 "Hg3 mi
11:20 AM37 °FFog.1 mph100%29.12 "Hg2 mi
10:50 AM37 °FFog.2 mph100%29.12 "Hg2 mi
10:20 AM36 °FFog.1 mph100%29.09 "Hg2 mi
9:50 AM36 °FLight rain. Low clouds.2 mph100%29.09 "Hg2 mi
9:20 AM36 °FDrizzle. Low clouds.2 mph100%29.06 "Hg1 mi
8:20 AM34 °FDrizzle. Low clouds.2 mph100%29.06 "Hg1 mi
7:50 AM34 °FLight rain. Low clouds.3 mph100%29.06 "Hg1 mi
7:20 AM36 °FLight rain. Low clouds.1 mph100%29.03 "Hg2 mi
7:50 PM
Sat, Feb 13
34 °FLight rain. Passing clouds.8 mph100%29.15 "Hg4 mi
7:20 PM34 °FLight rain. Passing clouds.8 mph100%29.15 "Hg4 mi
6:50 PM36 °FPartly cloudy.6 mph93%29.15 "Hg5 mi
6:20 PM36 °FLight rain. Passing clouds.8 mph93%29.18 "Hg5 mi
5:50 PM36 °FLight rain. Passing clouds.13 mph87%29.18 "Hg6 mi
5:20 PM37 °FDrizzle. Partly sunny.10 mph75%29.18 "HgN/A
4:50 PM37 °FMostly cloudy.13 mph75%29.18 "HgN/A
4:20 PM37 °FPartly sunny.12 mph75%29.21 "HgN/A
3:50 PM39 °FPartly sunny.12 mph65%29.21 "HgN/A
3:20 PM39 °FSunny.13 mph65%29.21 "Hg10 mi
2:50 PM41 °FSunny.12 mph61%29.21 "Hg10 mi
2:20 PM41 °FSunny.12 mph61%29.24 "Hg10 mi
Weather by CustomWeather, © 2016

See weather overviewHow to use our weather pages